EW3803 Weather Reports


time (UTC)temp
C
wind
direction
speed
KPH
gust
KPH
rain 1hr
cm
rain 24hr
cm
rain mn
cm
humidity
%
barometer
mb
20260906164525 25 223 14.5 27.4 0.00 0.00 0.00 71 1019.8
20260906163027 25 231 14.5 24.1 0.00 0.00 0.00 71 1019.7
20260906161510 25 227 12.9 20.9 0.00 0.00 0.00 71 1019.8
20260906160016 25 253 16.1 25.7 0.00 0.00 0.00 71 1019.8
20260906154524 25 223 12.9 25.7 0.00 0.00 0.00 71 1019.7
20260906153030 24 258 17.7 25.7 0.00 0.00 0.00 73 1019.8
20260906151508 25 238 19.3 25.7 0.00 0.00 0.00 72 1019.8
20260906150017 25 235 12.9 25.7 0.00 0.00 0.00 70 1019.7
20260906144520 25 246 11.3 22.5 0.00 0.00 0.00 72 1019.8
20260906143031 25 227 16.1 22.5 0.00 0.00 0.00 69 1019.9
20260906141539 25 234 12.9 20.9 0.00 0.00 0.00 70 1020.0
20260906140035 25 225 12.9 22.5 0.00 0.00 0.00 71 1020.2
20260906134517 25 223 14.5 19.3 0.00 0.00 0.00 69 1020.4
20260906133026 25 208 12.9 19.3 0.00 0.00 0.00 68 1020.5
20260906131534 25 221 12.9 19.3 0.00 0.00 0.00 70 1020.5
20260906130038 25 246 12.9 20.9 0.00 0.00 0.00 70 1020.5
20260906124516 25 237 12.9 22.5 0.00 0.00 0.00 69 1020.5
20260906123022 24 203 12.9 20.9 0.00 0.00 0.00 72 1020.6
20260906121527 24 236 11.3 17.7 0.00 0.00 0.00 73 1020.7
20260906120035 23 225 12.9 22.5 0.00 0.00 0.00 78 1020.6
20260906114521 23 237 16.1 24.1 0.00 0.00 0.00 81 1020.7
20260906113019 23 239 14.5 22.5 0.00 0.00 0.00 80 1020.8
20260906111524 23 238 11.3 19.3 0.00 0.00 0.00 78 1020.8
20260906110032 24 257 14.5 20.9 0.00 0.00 0.00 75 1020.9
20260906104535 23 239 14.5 20.9 0.00 0.00 0.00 76 1020.9
20260906103015 23 242 12.9 17.7 0.00 0.00 0.00 76 1021.0
20260906101523 24 241 9.7 17.7 0.00 0.00 0.00 74 1020.9
20260906100033 23 208 8.0 12.9 0.00 0.00 0.00 77 1020.8
20260906094531 23 227 6.4 12.9 0.00 0.00 0.00 83 1020.6
20260906093046 22 202 4.8 11.3 0.00 0.00 0.00 85 1020.6
20260906091520 22 248 6.4 9.7 0.00 0.00 0.00 89 1020.4
20260906090043 22 253 4.8 12.9 0.00 0.00 0.00 91 1020.3
20260906084534 21 244 4.8 6.4 0.00 0.00 0.00 94 1020.1
20260906083039 21 351 1.6 3.2 0.00 0.00 0.00 95 1020.1
20260906081517 21 360 3.2 3.2 0.00 0.00 0.00 96 1020.0
20260906080002 20 360 3.2 4.8 0.00 0.00 0.00 96 1019.9
20260906074509 20 360 1.6 3.2 0.00 0.00 0.00 95 1019.9
20260906073005 19 98 0.0 3.2 0.00 0.00 0.00 96 1019.9
20260906071505 18 99 0.0 4.8 0.00 0.00 0.00 95 1019.8
20260906070007 19 82 0.0 6.4 0.00 0.00 0.00 95 1019.7
20260906064512 19 106 1.6 6.4 0.00 0.00 0.00 95 1019.5
20260906063008 19 109 3.2 6.4 0.00 0.00 0.00 95 1019.5
20260906061509 19 129 3.2 6.4 0.00 0.00 0.00 95 1019.4
20260906060009 19 105 4.8 6.4 0.00 0.00 0.00 95 1019.3
20260906054508 19 86 0.0 9.7 0.00 0.00 0.00 95 1019.3
20260906053008 19 97 8.0 9.7 0.00 0.00 0.00 95 1019.2
20260906051511 19 111 3.2 4.8 0.00 0.00 0.00 95 1019.0
20260906050010 19 111 3.2 8.0 0.00 0.00 0.00 94 1019.1
20260906044512 19 94 4.8 6.4 0.00 0.00 0.00 94 1019.0
20260906043012 19 43 3.2 6.4 0.00 0.00 0.00 94 1019.1
20260906041512 19 47 4.8 6.4 0.00 0.00 0.00 94 1019.1
20260906040013 20 147 1.6 3.2 0.00 0.00 0.00 94 1019.2
20260906034514 20 147 0.0 4.8 0.00 0.00 0.00 94 1019.1
20260906033014 20 147 3.2 6.4 0.00 0.00 0.00 94 1019.2
20260906031507 20 138 1.6 4.8 0.00 0.00 0.00 94 1019.2
20260906030015 19 125 1.6 3.2 0.00 0.00 0.00 93 1019.3
20260906024514 19 125 1.6 6.4 0.00 0.00 0.00 93 1019.3
20260906023015 20 126 3.2 6.4 0.00 0.00 0.00 93 1019.3
20260906021516 20 92 3.2 6.4 0.00 0.00 0.00 93 1019.3
20260906020014 20 107 4.8 6.4 0.00 0.00 0.00 92 1019.3
20260906014535 20 222 1.6 3.2 0.00 0.00 0.00 93 1019.5
20260906013022 20 264 1.6 3.2 0.00 0.00 0.00 92 1019.5
20260906011518 20 264 0.0 1.6 0.00 0.00 0.00 92 1019.8
20260906010036 20 264 1.6 3.2 0.00 0.00 0.00 92 1019.9
20260906004516 20 264 1.6 3.2 0.00 0.00 0.00 92 1020.0
20260906003018 20 264 0.0 0.0 0.00 0.00 0.00 91 1020.0
20260906001520 20 264 0.0 0.0 0.00 0.00 0.00 91 1020.0
20260906000018 20 264 0.0 0.0 0.00 0.00 0.00 91 1020.0
20260905234513 20 264 0.0 0.0 0.00 0.00 0.00 90 1020.0
20260905233018 21 264 1.6 3.2 0.00 0.00 0.00 89 1020.0
20260905231536 21 264 3.2 4.8 0.00 0.00 0.00 88 1020.0
20260905230017 21 264 1.6 4.8 0.00 0.00 0.00 87 1019.8
20260905224524 21 264 1.6 4.8 0.00 0.00 0.00 86 1019.8
20260905223029 21 264 3.2 4.8 0.00 0.00 0.00 85 1019.8
20260905221526 21 268 3.2 6.4 0.00 0.00 0.00 84 1019.7
20260905220027 21 264 3.2 6.4 0.00 0.00 0.00 82 1019.8
20260905214523 22 284 4.8 4.8 0.00 0.00 0.00 81 1019.9
20260905213019 22 290 3.2 3.2 0.00 0.00 0.00 81 1019.8
20260905211536 22 290 3.2 4.8 0.00 0.00 0.00 80 1019.7
20260905210027 22 290 3.2 4.8 0.00 0.00 0.00 80 1019.6
20260905204528 22 290 0.0 3.2 0.00 0.00 0.00 81 1019.4
20260905203024 22 290 3.2 4.8 0.00 0.00 0.00 81 1019.2
20260905201526 22 290 3.2 4.8 0.00 0.00 0.00 82 1019.1
20260905200024 22 250 1.6 6.4 0.00 0.00 0.00 83 1019.0
20260905194528 22 217 0.0 3.2 0.00 0.00 0.00 84 1018.8
20260905193015 22 217 1.6 4.8 0.00 0.00 0.00 84 1018.4
20260905191525 22 217 1.6 3.2 0.00 0.00 0.00 84 1018.5
20260905190023 23 217 0.0 4.8 0.00 0.00 0.00 84 1018.4
20260905184531 23 214 1.6 4.8 0.00 0.00 0.00 82 1018.4
20260905183036 24 217 3.2 6.4 0.00 0.00 0.00 81 1018.5
20260905181511 24 185 3.2 8.0 0.00 0.00 0.00 80 1018.5
20260905180018 25 200 4.8 8.0 0.00 0.00 0.00 78 1018.4
20260905174527 26 199 4.8 11.3 0.00 0.00 0.00 75 1018.2
20260905173026 26 194 6.4 16.1 0.00 0.00 0.00 72 1018.2
20260905171530 26 175 6.4 16.1 0.00 0.00 0.00 70 1018.2
20260905170016 27 184 9.7 14.5 0.00 0.00 0.00 66 1017.9